Home > Time Zones > World Clock > Weather > Iran > Gorgan > Past weeks

Flag for Iran Weather past 2 weeks in Gorgan, Iran

Now
100 °F

Sunny.


Feels Like: 106 °F
Forecast: 72 / 93 °F
Wind: 12 mph from West

Location: Gorgan Airport

Current Time: Aug 29, 2014 at 4:46:14 PM

Latest Report: Aug 29, 2014 at 3:30 PM


Visibility: 10 mi

Pressure: 29.77 "Hg

Humidity: 35%

Dew point: 68 °F

Location of GorganLocation

Historic Weather in Gorgan — Graph

°F

Gorgan temperature yesterday

Maximum temperature yesterday: 99 °F (at 2:30 PM)
Minimum temperature yesterday: 75 °F (at 6:30 AM)
Average temperature yesterday: 86 °F

Past Weeks' High & Low Weather Summary

 TemperatureHumidityPressure
High106 °F (Aug 19, 3:00 PM)100% (Aug 15, 1:30 PM)30.01 "Hg (Aug 15, 1:30 PM)
Low68 °F (Aug 15, 1:30 PM)27% (Aug 28, 4:30 PM)29.71 "Hg (Aug 16, 6:30 PM)
Average85 °F65%29.84 "Hg
* Reported Aug 14 3:30 PM — Aug 29 3:30 PM, Gorgan, Weather by CustomWeather, © 2014

Note: Actual official high and low records may vary slightly from our data, if they occured in-between our weather recording intervals... More about our weather records

Advertising

Gorgan weather history for previous 24 hours

 ConditionsComfort  
Time TempWeatherWind HumidityBarometerVisibility
3:30 PM
Aug 29
100 °FSunny.12 mph35%29.77 "Hg10 mi
2:30 PM100 °FSunny.14 mph40%29.77 "Hg10 mi
1:30 PM100 °FSunny.12 mph29%29.77 "Hg10 mi
12:30 PM97 °FSunny.5 mph30%29.77 "Hg10 mi
11:30 AM93 °FSunny.7 mph41%29.80 "Hg10 mi
10:30 AM90 °FSunny.5 mph49%29.80 "Hg10 mi
10:00 AM90 °FSunny.7 mph46%29.80 "Hg10 mi
9:30 AM86 °FSunny.5 mph59%29.80 "Hg10 mi
9:00 AM84 °FSunny.7 mph66%29.77 "Hg10 mi
8:30 AM81 °FSunny.No wind66%29.77 "Hg10 mi
7:30 AM73 °FClear.5 mph78%29.77 "Hg10 mi
6:30 AM70 °FClear.No wind88%29.74 "Hg10 mi
5:30 AM72 °FClear.No wind88%29.74 "Hg10 mi
4:30 AM72 °FClear.No wind88%29.74 "Hg10 mi
3:30 AM73 °FClear.No wind83%29.74 "Hg10 mi
2:30 AM75 °FClear.No wind74%29.74 "Hg10 mi
1:30 AM77 °FClear.7 mph79%29.77 "Hg10 mi
11:30 PM
Aug 28
79 °FClear.5 mph79%29.77 "Hg4 mi
10:30 PM81 °FClear.5 mph79%29.80 "Hg4 mi
9:30 PM82 °FClear.7 mph74%29.80 "Hg4 mi
8:30 PM84 °FSunny.9 mph70%29.77 "Hg4 mi
7:30 PM88 °FSunny.12 mph62%29.77 "Hg4 mi
6:30 PM95 °FPassing clouds.12 mph39%29.77 "Hg5 mi
5:30 PM99 °FPassing clouds.12 mph37%29.77 "Hg5 mi
4:30 PM99 °FPassing clouds.5 mph27%29.77 "Hg5 mi
Weather by CustomWeather, © 2014

See weather overviewHow to use our weather pages